Regional Weather Roundup
Issued by NWS

Home | Current Version | Previous Version | Text Only | Print | Product List | Glossary Off
Versions: 1 2 3 4 5 6 7 8 9 10 11 12 13 14 15 16 17 18 19 20 21 22 23 24 25 26 27 28 29 30 31 32 33 34 35 36 37 38 39 40 41 42 43 44 45 46 47 48 49 50

000
ASUS44 KMEG 260610
RWRTN
TENNESSEE HOURLY STATE WEATHER ROUNDUP
NATIONAL WEATHER SERVICE MEMPHIS TN
100 AM CDT MON SEP 26 2016

TNZ002-004-019-021-049-052-054-088>092-260700-
WEST TENNESSEE

CITY           SKY/WX    TMP DP  RH WIND       PRES   REMARKS
MEMPHIS INTL   CLOUDY    78  68  71 SW5       30.01S
NWS MEMPHIS      N/A     74 N/A N/A MISG        N/A
JACKSON          N/A    N/A N/A N/A MISG      30.00F
DYERSBURG      CLEAR    N/A N/A N/A MISG      29.99F
UNION CITY     CLEAR     70  70 100 CALM      29.98F
PARIS          CLEAR     66  64  94 CALM      30.01F
HUNTINGDON       N/A     70  68  94 CALM      29.99F
LEXINGTON      CLEAR     66  66 100 CALM      30.00F
$$

TNZ008-025-027-028-033-062-065-066-260700-
NORTH MIDDLE TENNESSEE

CITY           SKY/WX    TMP DP  RH WIND       PRES   REMARKS
NASHVILLE      CLEAR     71  65  81 CALM      30.03S
PORTLAND       CLEAR     68  66  94 CALM      30.03F
CLARKSVILLE    CLEAR     67  65  93 SE3       30.01F FOG
SMYRNA         CLEAR     66  64  93 CALM      30.03S
COOKEVILLE     CLEAR     68  66  94 CALM      30.04F
GALLATIN       CLEAR     68  66  94 CALM      30.05S
CROSSVILLE     CLEAR     65  64  97 CALM      30.10F
$$

TNZ061-075-076-078-094-096-097-260700-
SOUTH MIDDLE TENNESSEE

CITY           SKY/WX    TMP DP  RH WIND       PRES   REMARKS
FAYETTEVILLE   CLOUDY    73  68  83 S6        30.04F
TULLAHOMA      CLEAR     68  64  88 CALM      30.05F
WINCHESTER     CLEAR     70  64  83 CALM      30.05S
MCMINNVILLE    CLEAR     68  68 100 CALM      30.04F
COLUMBIA       CLEAR    N/A N/A N/A CALM      30.02F
SHELBYVILLE    CLEAR     70  66  88 CALM      30.03F
$$

TNZ017-018-042-046-047-260700-
NORTHEAST TENNESSEE

CITY           SKY/WX    TMP DP  RH WIND       PRES   REMARKS
TRI CITIES     CLEAR     66  63  90 CALM      30.10S
ELIZABETHTON   PTCLDY    68  63  83 CALM      30.11S
$$

TNZ012-013-036-069-073-074-260700-
CENTRAL EAST TENNESSEE

CITY           SKY/WX    TMP DP  RH WIND       PRES   REMARKS
KNOXVILLE      PTCLDY    72  63  73 CALM      30.05S
OAK RIDGE      CLEAR     73  66  78 CALM      30.07S
DOWNTOWN KNOXV CLEAR     68  68 100 CALM      30.05S
GATLINBURG     CLEAR     66  63  88 CALM      30.05F
MORRISTOWN     PTCLDY    70  63  78 CALM      30.06S
JACKSBORO      MOCLDY    66  66 100 CALM      30.09F
$$

TNZ083-085-099-260700-
SOUTHEAST TENNESSEE

CITY           SKY/WX    TMP DP  RH WIND       PRES   REMARKS
CHATTANOOGA    PTCLDY    76  65  68 CALM      30.05S
$$

SKY/WX REPORTED AS FAIR MEANS FEW OR NO CLOUDS BELOW
12 THOUSAND FEET.




USA.gov is the U.S. government's official web portal to all federal, state and local government web resources and services.